Theta_e
305 305 306 306 307 307 307 307 306 306 306 306 306 306 307 307 309 312 322 324 324 327 326 325 324 324 326 328 337 334 335 336 338 343 341 343 343 340 342 343 345 346 347 346 346 347 347 341 341 345 345 340 337 337
302 303 304 305 306 306 307 307 307 307 306 306 306 306 306 307 307 310 315 318 320 320 325 323 322 324 324 325 325 325 337 334 336 341 344 340 342 342 342 343 339 343 341 347 348 348 342 341 343 340 340 338 337 337
301 301 303 304 305 306 307 307 307 307 307 307 307 307 306 307 307 308 311 313 315 322 322 322 321 322 318 317 323 326 327 331 331 333 339 339 342 339 340 340 338 336 337 342 346 343 341 340 338 338 338 338 338 338
300 301 301 302 302 303 305 306 307 307 307 308 308 307 307 307 307 307 310 313 314 323 323 322 318 321 319 321 320 323 324 325 328 327 333 336 336 330 336 335 337 336 340 343 344 342 339 338 338 338 338 338 337 335
300 301 301 301 302 302 303 305 306 307 307 308 308 308 308 307 307 307 310 318 316 322 325 322 320 319 318 318 322 323 322 324 327 330 332 333 333 332 331 331 333 334 341 338 338 343 339 339 338 338 337 336 336 336
300 300 301 302 302 302 302 303 305 306 307 307 308 308 308 308 307 307 325 319 318 321 324 324 321 320 323 323 323 322 322 324 327 328 330 329 327 330 336 337 337 334 336 336 338 339 340 339 339 337 337 337 337 337
299 300 301 302 302 302 302 302 303 305 306 307 308 308 309 308 308 313 323 326 321 322 325 326 323 322 324 324 325 325 325 326 326 328 328 329 330 328 331 334 333 334 334 335 337 338 339 339 339 338 337 336 335 335
300 300 301 302 302 302 302 303 303 304 306 307 308 308 309 309 313 313 310 320 319 321 322 327 326 322 325 326 328 327 327 327 328 329 328 328 330 329 330 330 329 334 335 336 337 337 338 338 337 336 334 333 333 332
300 300 300 301 302 302 302 303 303 303 306 307 308 308 309 315 320 321 313 313 317 321 325 323 326 327 328 328 330 328 329 330 328 329 329 329 328 331 329 330 332 335 335 336 336 336 336 336 335 334 333 332 333 332
300 300 300 300 301 302 302 303 303 304 307 308 308 315 324 321 321 322 322 323 323 324 324 326 324 326 327 329 329 330 329 329 331 329 329 331 328 327 331 334 337 336 336 335 336 336 335 335 334 333 333 332 332 330
301 301 301 301 301 302 302 302 303 305 307 308 309 314 318 321 320 320 323 324 323 323 323 324 324 324 322 330 330 330 330 330 329 330 330 331 332 331 336 337 336 335 335 335 336 335 334 334 334 333 332 331 330 331
301 301 301 301 301 302 302 303 302 306 307 307 308 308 309 319 323 324 325 324 325 327 327 327 329 324 321 322 331 332 331 332 330 332 332 332 334 339 336 336 335 335 335 335 334 334 334 333 333 332 331 331 331 332
302 302 301 301 302 302 303 303 303 305 306 308 311 316 318 318 324 324 324 324 327 329 331 328 330 328 325 321 328 335 334 331 333 335 333 332 341 336 335 334 334 333 333 333 333 333 333 332 331 330 331 331 332 332
302 302 301 301 302 303 302 303 304 306 307 312 315 313 316 318 317 320 323 325 323 323 325 327 330 332 326 324 328 336 333 334 332 332 333 334 340 336 335 334 334 334 333 333 333 333 331 331 331 331 331 331 331 331
302 302 301 302 301 302 302 303 305 306 309 312 315 316 319 319 321 322 320 321 321 322 324 326 330 331 331 329 330 333 334 334 332 332 332 340 338 336 335 334 334 334 334 333 332 331 331 330 330 330 330 330 330 329
302 302 302 301 301 301 302 304 306 307 310 311 312 316 319 320 320 320 320 320 320 321 324 327 332 334 333 330 331 329 331 332 333 335 337 339 337 336 335 335 334 334 334 332 331 331 330 330 330 329 329 329 328 327
301 303 301 300 300 301 303 306 308 310 311 313 314 313 315 318 320 320 319 319 318 323 328 330 332 332 332 332 329 330 329 330 334 337 336 337 337 336 335 335 334 333 332 331 330 330 330 329 328 327 327 326 326 324
302 303 301 300 300 303 306 308 310 310 311 312 313 314 315 316 317 317 317 317 318 321 323 329 329 334 332 331 330 331 331 335 337 336 336 336 336 336 335 333 330 329 331 330 329 328 327 327 327 327 326 324 322 321
302 301 300 300 301 302 306 309 310 311 312 312 313 314 314 314 314 314 314 314 316 318 319 324 330 332 331 330 332 332 332 335 336 335 336 336 336 335 334 332 329 330 330 329 327 325 325 325 325 324 323 321 320 318
301 300 300 300 301 304 306 309 310 311 312 313 312 312 312 313 313 313 313 313 314 317 321 325 327 327 330 331 331 332 332 334 334 335 334 334 334 334 332 330 330 330 328 326 325 322 321 321 322 321 320 319 318 317
300 302 301 302 304 304 306 308 310 311 312 313 313 314 314 314 314 314 313 312 314 316 319 321 323 327 329 325 331 327 330 333 334 334 334 333 332 331 331 330 330 328 327 325 323 321 319 319 319 319 318 318 318 318
301 302 305 306 306 306 306 307 309 310 311 311 311 311 312 313 314 314 314 314 314 314 316 319 324 327 328 329 331 330 333 332 330 330 332 332 331 330 330 330 329 328 327 325 322 320 319 320 320 319 318 317 316 317
301 304 305 305 307 307 307 308 310 310 312 312 312 314 314 315 315 316 315 314 314 318 321 322 322 321 324 329 326 325 325 332 332 332 330 330 328 330 329 329 329 328 328 325 322 320 320 321 319 318 317 317 316 315
303 305 305 307 308 308 308 310 310 311 312 314 315 315 315 315 317 317 318 316 318 320 317 319 322 324 325 325 328 327 324 322 324 331 329 325 324 326 330 329 329 329 329 327 323 321 321 320 319 316 317 318 317 317
304 305 306 305 308 309 311 312 312 312 314 315 315 315 316 317 318 318 318 318 320 320 320 322 323 321 324 324 325 327 328 323 324 329 329 328 329 329 329 329 329 330 328 327 325 322 321 320 317 317 316 316 316 315
305 307 306 309 310 310 310 312 312 312 311 313 314 315 317 319 318 318 319 319 319 320 321 321 321 322 321 324 325 326 327 329 329 328 327 329 327 326 327 328 327 327 327 327 326 323 319 318 316 315 317 317 316 315
307 309 309 308 307 309 310 311 311 311 312 313 312 315 317 318 318 319 318 318 319 318 319 318 319 321 320 321 322 321 322 326 328 327 327 327 327 328 328 328 328 326 326 325 321 320 317 316 316 317 316 314 314 313
308 308 310 310 310 311 312 313 314 314 315 314 315 311 315 316 317 315 317 316 316 316 318 317 319 319 320 320 321 322 322 323 323 324 323 323 323 323 323 323 323 323 321 319 317 317 318 317 314 313 313 312 311 310
310 310 310 312 313 313 313 314 312 310 312 313 315 315 315 313 311 311 312 315 315 316 318 319 318 319 320 321 321 322 322 323 324 325 324 322 320 319 318 319 318 318 317 315 313 313 313 312 311 311 311 310 309 308
311 312 312 313 314 314 314 313 313 313 314 314 314 315 311 309 308 309 311 309 311 315 316 317 318 319 319 319 320 320 323 323 325 323 322 320 318 318 318 318 313 312 311 311 311 310 310 310 310 309 309 308 308 308
310 311 312 312 312 312 313 313 314 313 312 310 310 309 308 306 305 307 311 311 310 311 313 314 315 318 319 319 319 319 320 320 321 321 320 319 318 315 314 314 315 313 312 311 311 310 310 309 309 308 308 308 307 306
311 312 312 313 313 312 313 313 311 311 313 312 313 313 312 310 308 306 305 308 310 311 310 310 312 314 315 316 313 313 314 315 318 318 317 316 316 315 315 316 316 315 313 311 310 310 309 309 308 308 307 306 305 304
312 313 313 313 313 314 313 313 312 313 312 313 313 312 310 309 310 309 307 306 306 306 309 310 309 311 314 315 314 312 314 314 313 314 316 316 315 315 314 313 313 311 310 310 309 309 309 308 307 306 305 304 304 304
Wind_Speed
12 14 15 15 16 16 15 14 14 14 13 13 14 14 14 14 13 9 3 2 2 6 11 5 3 3 3 6 8 11 2 6 5 5 4 2 9 3 2 2 3 8 11 10 10 12 6 8 8 3 5 10 12 14
12 13 13 14 14 15 15 14 14 13 13 12 13 13 13 13 12 9 3 7 8 7 9 9 11 11 8 3 1 6 14 9 3 2 2 3 10 6 3 3 1 3 2 3 5 5 4 5 6 5 7 13 13 13
13 15 14 14 14 14 14 14 13 13 12 12 12 12 12 12 12 9 7 7 6 6 14 10 7 6 12 15 11 4 3 7 5 3 5 4 5 5 5 6 3 2 2 1 3 4 4 5 6 10 13 13 14 12
14 15 14 14 15 16 15 13 13 12 12 12 12 12 12 12 12 10 8 7 5 5 5 1 4 3 6 7 14 14 0 4 6 6 4 4 4 4 2 2 11 1 7 5 4 3 3 6 10 12 14 14 13 10
16 16 13 13 14 15 14 13 12 12 12 12 12 12 12 11 11 11 9 6 6 2 6 8 14 8 7 9 9 11 15 10 3 6 5 4 2 4 2 3 5 8 5 5 2 13 7 15 16 15 16 14 11 9
17 16 15 14 13 14 14 13 13 12 12 12 12 12 12 10 9 7 2 2 5 3 4 4 3 3 3 5 10 13 12 11 9 6 6 3 1 4 4 6 3 7 3 3 3 5 4 17 18 16 15 12 10 8
17 16 17 16 15 13 14 14 14 13 13 12 12 11 10 9 7 4 2 2 6 4 3 5 3 3 3 5 5 7 10 10 11 11 7 6 4 4 5 9 5 3 5 4 7 14 15 19 19 16 15 14 12 10
15 15 15 17 17 13 15 15 14 14 13 12 11 9 7 6 5 6 11 6 2 2 4 4 3 4 3 8 7 7 9 11 10 9 3 7 3 4 5 6 9 6 5 8 13 6 14 17 20 18 15 13 10 7
15 16 17 17 17 14 15 14 15 14 13 11 7 4 2 2 2 5 5 7 6 5 4 3 3 2 0 4 2 6 7 6 4 5 6 4 6 6 4 7 8 8 9 11 13 15 20 21 19 16 13 9 7 4
15 15 16 18 18 16 15 14 14 14 10 6 1 1 4 3 3 3 2 2 4 5 6 5 2 3 4 3 8 6 7 5 5 6 4 5 11 15 9 5 7 11 9 18 22 20 20 19 17 13 10 7 5 3
13 15 16 17 17 17 15 14 14 13 6 2 3 1 3 3 4 3 4 5 5 4 6 6 7 8 1 4 4 4 4 4 5 5 5 5 5 9 10 8 11 11 15 15 12 16 15 16 15 12 9 6 3 3
12 14 16 17 17 16 15 14 12 13 10 9 6 6 2 2 4 4 4 3 5 2 4 3 1 4 3 2 4 4 4 4 5 7 4 4 3 6 9 13 14 17 16 16 17 17 15 14 11 9 7 5 4 4
12 13 15 18 16 12 13 14 11 10 10 4 4 1 1 3 1 5 6 4 3 2 2 1 1 2 4 5 4 4 5 6 6 5 6 3 8 9 13 17 18 17 18 18 17 16 14 12 9 6 6 5 5 5
13 13 14 17 10 10 13 13 9 8 4 2 2 4 4 4 4 2 2 3 4 3 3 5 6 3 3 5 4 4 2 3 6 7 8 5 12 15 17 19 21 20 18 17 15 13 11 9 8 6 6 6 6 7
14 12 12 10 12 14 14 11 7 4 2 2 2 3 4 2 3 2 1 2 2 4 6 6 6 5 4 4 4 2 4 5 5 8 5 9 16 19 21 21 20 19 17 15 12 11 9 8 7 7 7 7 8 8
14 12 7 12 14 12 11 8 3 1 2 3 4 4 4 5 5 5 2 1 4 7 6 5 4 3 6 4 5 9 5 5 5 2 7 14 19 21 22 21 19 16 14 13 11 10 9 8 9 8 8 9 8 8
11 5 11 14 13 9 8 2 1 2 2 3 5 7 7 6 6 3 3 3 8 6 4 3 5 6 4 5 10 3 10 5 6 6 8 14 22 24 22 19 17 15 13 11 10 10 9 9 9 9 9 9 9 9
10 8 11 15 11 9 2 0 1 2 4 6 7 3 5 7 7 7 5 4 6 4 5 3 6 4 4 4 3 1 1 2 3 6 10 17 22 21 19 18 16 13 12 11 10 9 9 9 9 8 9 10 11 11
10 9 9 11 8 6 2 1 2 4 6 6 8 9 9 10 10 11 12 10 8 8 8 5 5 5 6 1 0 5 2 1 4 9 15 19 20 19 17 15 13 12 12 11 10 8 8 9 8 9 10 11 10 9
8 8 9 6 4 2 2 3 3 4 5 2 7 10 10 11 11 12 13 13 11 10 7 5 6 10 6 7 6 6 5 4 7 15 19 19 18 17 15 13 12 13 12 11 9 10 9 9 10 10 10 10 9 8
4 3 2 2 2 3 3 3 4 4 6 6 7 8 9 9 11 13 14 14 15 15 12 15 11 9 7 8 6 9 7 5 10 13 20 23 18 15 14 11 11 11 10 10 9 9 11 10 10 10 9 8 7 6
4 4 1 3 2 2 3 4 5 6 5 9 11 10 8 9 10 11 11 14 18 17 17 16 5 6 5 5 3 3 3 10 15 12 20 20 20 18 16 13 12 10 9 9 9 10 11 11 10 9 7 6 6 5
3 1 1 3 3 2 3 3 4 4 4 3 4 4 5 5 5 3 6 10 14 7 5 8 10 9 7 3 5 4 7 3 10 18 19 22 16 13 13 13 11 10 10 11 11 11 11 12 12 9 7 6 6 6
1 1 2 2 4 3 3 3 4 3 4 4 3 4 4 4 4 5 7 12 7 7 11 7 5 6 7 6 6 7 12 13 11 12 24 22 8 11 10 9 11 11 13 12 13 12 11 11 11 10 6 5 4 5
0 2 3 4 4 3 4 3 3 2 4 4 4 5 1 2 3 4 7 4 7 8 6 5 3 3 4 4 3 5 9 10 11 18 10 13 15 11 9 9 10 10 12 14 15 14 13 12 12 12 8 6 6 2
2 3 3 3 1 2 2 3 2 3 3 2 4 7 4 3 4 4 1 4 6 5 3 3 4 5 5 3 5 4 5 8 11 11 9 7 7 8 8 8 9 11 13 11 14 15 16 15 13 12 9 6 7 5
2 1 3 5 4 5 5 8 9 4 4 3 3 3 3 4 3 2 4 4 5 5 4 5 5 6 7 8 10 11 9 5 7 10 9 8 7 6 7 7 7 7 8 12 16 16 15 13 9 8 6 3 2 4
3 3 4 4 5 6 4 4 1 2 3 2 3 1 6 8 5 12 14 17 15 11 9 8 5 8 7 6 5 5 7 8 12 15 15 10 8 8 9 10 10 10 13 16 19 17 11 6 8 7 7 8 7 4
3 3 5 9 5 5 3 2 3 4 5 4 3 1 1 2 16 15 16 9 10 8 5 6 6 5 4 3 5 6 9 14 14 17 17 17 18 16 16 18 17 16 17 19 21 17 14 13 12 11 9 7 4 2
3 5 5 4 3 3 5 7 9 13 8 10 8 3 15 22 27 25 25 19 8 2 4 3 6 8 7 7 6 10 11 13 9 12 15 21 22 23 21 24 25 22 18 13 15 16 13 12 10 8 6 5 3 3
5 4 3 4 3 8 12 14 10 11 15 18 21 23 16 14 25 32 33 33 31 26 23 19 18 16 16 16 14 9 9 7 12 16 22 27 29 30 28 22 19 17 14 14 14 13 11 9 7 6 5 4 3 3
5 3 5 3 3 6 9 8 7 8 8 6 6 9 9 9 12 16 24 29 32 35 36 35 34 30 25 27 32 32 34 30 30 29 28 27 26 26 17 14 13 13 14 13 11 10 8 7 6 5 4 4 4 4
6 5 4 4 3 3 7 2 3 6 12 9 11 16 16 17 16 16 17 18 18 17 22 25 25 26 24 23 28 28 25 26 26 24 21 21 21 18 14 13 14 15 14 12 11 9 8 8 5 4 4 3 3 4
Wind_Direction
327 317 313 307 307 308 310 312 314 318 324 329 332 337 343 350 356 358 277 328 337 286 280 267 264 277 174 202 179 149 152 280 196 233 192 321 299 67 246 113 146 190 200 214 230 227 215 153 151 249 94 137 148 155
327 328 323 319 315 309 307 308 308 311 316 320 323 329 335 340 350 355 354 296 293 271 265 274 263 250 240 225 270 165 211 147 329 153 63 155 292 285 1 333 175 207 359 21 346 41 92 142 70 119 139 142 146 149
323 322 322 320 321 319 313 307 304 306 308 311 315 319 324 329 335 338 323 307 314 285 290 261 261 248 240 235 216 250 164 163 193 201 166 177 243 314 251 305 294 155 198 59 217 103 103 132 128 134 139 140 141 142
326 325 331 329 328 329 326 321 317 308 302 303 305 309 313 318 321 322 318 294 276 282 280 232 278 284 241 223 218 217 16 161 140 160 202 214 228 198 296 291 248 26 179 137 103 135 150 163 156 147 140 136 133 133
329 329 322 324 328 327 328 325 319 311 305 300 298 300 303 308 311 310 307 281 224 240 318 295 296 271 254 229 223 215 210 220 201 202 205 232 211 207 215 235 220 190 164 222 267 165 213 167 167 159 147 140 136 134
328 330 332 326 325 325 324 322 320 319 312 303 297 293 293 297 303 315 292 258 212 233 292 285 319 251 265 235 214 214 214 217 216 244 235 221 240 260 236 245 265 208 213 303 325 159 159 157 157 155 146 141 137 140
333 330 335 333 329 323 322 323 322 319 315 306 299 289 285 285 274 217 276 234 197 241 274 284 255 200 197 173 178 188 199 207 218 225 238 252 199 242 267 257 219 254 222 190 153 133 133 151 155 149 141 136 131 129
334 334 333 332 331 328 324 323 324 323 316 310 302 290 279 273 243 234 233 233 236 244 256 276 269 236 197 198 181 184 183 193 200 230 186 227 172 234 255 260 265 228 199 184 172 190 164 150 145 140 137 137 137 135
339 339 339 332 334 336 331 328 328 327 322 317 308 286 235 194 180 226 218 212 224 217 289 248 278 67 309 202 177 173 205 195 139 222 228 227 231 230 272 248 227 212 189 177 168 145 143 144 141 138 140 145 146 151
339 340 338 343 345 341 335 333 334 335 332 328 332 108 176 197 188 162 176 194 207 213 230 259 280 258 309 185 191 189 204 225 207 200 125 236 249 244 246 237 210 189 184 165 153 148 147 142 140 142 146 149 158 184
329 336 337 337 340 340 336 335 340 348 352 38 10 234 208 188 183 199 210 219 171 223 212 246 258 272 234 274 213 218 205 198 240 187 223 213 239 210 203 191 168 167 160 158 157 148 144 143 144 148 150 154 159 161
321 332 334 332 333 332 332 338 346 360 356 329 299 286 205 190 206 227 205 176 222 245 165 240 97 230 228 263 254 193 219 195 240 134 212 240 194 149 165 161 154 152 152 145 142 136 135 136 141 149 152 149 147 146
315 329 332 329 327 322 332 344 346 339 342 347 359 326 243 175 185 221 191 190 208 166 143 292 248 227 199 221 249 224 216 221 126 204 223 245 121 149 152 152 146 146 144 138 133 132 134 132 134 143 148 151 149 151
313 323 326 331 321 319 326 337 340 343 2 294 290 305 229 180 231 238 266 25 37 286 317 307 278 247 188 202 247 228 164 192 224 226 219 192 164 156 154 154 149 146 143 140 138 138 137 135 132 133 143 145 154 147
310 323 316 326 319 311 314 329 330 342 295 270 260 243 222 321 237 235 225 248 28 322 312 289 245 243 186 235 211 225 197 231 216 227 218 131 158 158 157 156 153 149 147 144 144 144 141 138 133 126 135 144 148 145
313 321 320 329 330 327 319 327 329 232 264 254 240 252 225 248 196 194 187 311 358 322 293 241 262 240 218 222 196 214 227 221 190 160 129 150 157 157 156 156 153 151 148 147 149 148 143 141 140 140 135 142 145 147
312 295 314 326 327 319 321 331 273 252 259 245 232 235 257 281 275 269 285 316 326 300 273 293 239 218 325 227 224 228 231 277 109 139 149 164 160 157 154 152 149 146 146 145 145 141 143 143 145 143 145 142 147 148
297 294 320 323 327 349 23 242 254 246 254 243 249 214 228 252 267 271 273 296 318 309 290 293 313 246 248 243 246 148 115 77 97 144 148 152 152 152 151 151 151 153 148 146 145 145 146 149 150 158 156 152 151 154
289 295 314 312 319 334 340 242 226 261 243 258 259 260 262 266 262 265 269 273 270 275 287 253 257 241 251 326 312 44 39 177 144 136 142 148 151 149 147 148 149 148 149 149 147 149 158 157 166 164 162 158 161 163
287 294 288 270 285 290 289 249 225 265 270 324 275 266 267 265 266 261 259 254 252 247 226 225 247 280 305 307 328 327 300 124 164 155 150 155 156 153 152 150 153 155 149 152 151 154 157 155 155 158 160 165 168 175
281 268 228 240 275 232 272 282 251 258 296 275 289 285 275 254 248 247 243 238 227 226 236 244 247 260 279 317 290 314 282 188 190 194 166 159 161 159 156 157 154 158 163 166 169 174 162 164 162 161 169 173 188 204
229 225 258 203 237 247 258 253 264 296 268 276 287 261 266 259 253 246 240 235 230 234 230 251 261 266 282 284 300 1 199 189 187 196 175 170 162 166 165 165 166 174 179 181 177 175 170 169 169 170 178 187 196 209
205 149 187 196 251 246 265 248 256 237 258 272 257 247 234 235 234 222 240 233 230 223 240 261 257 254 255 258 246 208 4 337 196 184 173 172 180 168 170 169 170 184 187 190 182 179 180 182 182 172 188 206 217 233
171 314 256 247 229 264 253 241 238 257 272 256 253 261 256 247 268 250 252 240 200 232 246 253 262 250 233 221 216 193 189 259 321 227 170 160 154 213 192 190 184 189 194 193 188 181 182 182 187 186 189 205 214 255
296 221 238 252 229 253 233 232 233 227 260 232 249 252 303 244 241 242 242 241 228 227 233 235 278 258 246 251 234 200 179 152 178 225 177 160 160 155 167 182 187 185 187 195 191 188 186 186 182 187 203 228 247 268
234 211 199 304 301 262 268 258 242 346 333 276 301 314 293 259 243 245 257 221 211 205 232 277 289 289 280 262 255 247 211 216 222 209 191 163 159 173 177 177 192 211 201 195 191 183 184 191 195 209 216 262 256 243
296 266 247 244 249 268 267 251 242 231 229 234 220 266 269 244 246 76 7 351 325 270 293 297 267 265 266 261 257 248 243 231 200 181 161 146 139 146 156 175 176 172 168 170 175 184 172 166 177 217 228 202 166 146
266 266 267 275 266 250 268 299 343 296 292 264 227 219 321 353 336 332 314 309 299 288 285 266 256 257 268 271 251 213 204 206 186 183 171 152 133 122 135 139 129 136 149 155 153 160 180 193 143 143 144 141 134 134
268 294 290 281 256 233 225 249 200 254 263 279 306 335 328 45 5 351 330 327 293 273 256 239 233 221 234 225 176 164 173 158 165 158 147 138 134 123 124 127 124 131 140 138 128 120 123 134 137 136 134 131 126 116
341 326 298 291 302 349 44 341 314 310 309 297 286 106 70 32 28 36 37 46 58 168 177 185 162 151 134 112 126 170 169 165 160 184 160 144 140 138 136 130 126 120 120 124 129 132 133 133 127 118 119 116 100 64
313 311 295 313 313 318 327 333 356 41 58 73 82 80 83 51 33 38 46 52 68 92 94 91 109 118 124 117 104 107 155 162 153 145 148 136 130 127 123 119 123 129 135 131 126 125 127 126 123 119 114 97 71 40
303 288 312 297 309 313 340 24 15 32 91 81 43 43 50 52 58 37 49 55 59 62 65 65 65 73 80 86 95 95 94 93 104 117 122 118 124 122 126 121 121 125 127 132 130 128 122 119 119 117 101 76 59 56
294 298 293 296 289 327 1 27 63 59 94 84 64 62 58 56 52 43 41 45 51 58 70 69 68 74 82 94 103 103 105 108 114 117 120 122 121 123 118 115 115 121 123 123 122 121 118 117 114 108 94 81 75 68